SB KEPS @ AMSAT $ORB09169.O Orbital Elements 09169.OSCAR
HR AMSAT ORBITAL ELEMENTS FOR OSCAR SATELLITES FROM WA5QGD FORT WORTH,TX June 18, 2009 Send Subscribe/unsubscribe to KEPS at http://www.amsat.org/mailman/listinfo/keps BID: ORB09169.O TO ALL RADIO AMATEURS BT
Satellite: AO-07 Catalog number: 07530 Epoch time: 09168.80699255 Element set: 0507 Inclination: 101.4259 deg RA of node: 193.4604 deg Eccentricity: 0.0011483 Arg of perigee: 267.4660 deg Mean anomaly: 092.5088 deg Mean motion: 12.53575804 rev/day Decay rate: -2.7e-07 rev/day^2 Epoch rev: 58279 Checksum: 323
Satellite: FO-29 Catalog number: 24278 Epoch time: 09168.66830070 Element set: 0087 Inclination: 098.5541 deg RA of node: 042.6392 deg Eccentricity: 0.0350935 Arg of perigee: 349.3062 deg Mean anomaly: 010.0749 deg Mean motion: 13.52944165 rev/day Decay rate: -1.0e-08 rev/day^2 Epoch rev: 63381 Checksum: 309
Satellite: SO-33 Catalog number: 25509 Epoch time: 09168.75442445 Element set: 0478 Inclination: 031.4348 deg RA of node: 049.2727 deg Eccentricity: 0.0355124 Arg of perigee: 343.4318 deg Mean anomaly: 015.5057 deg Mean motion: 14.28253698 rev/day Decay rate: 2.07e-06 rev/day^2 Epoch rev: 55591 Checksum: 320
Satellite: RS-22 Catalog number: 27939 Epoch time: 09168.60884170 Element set: 0818 Inclination: 097.9449 deg RA of node: 043.4633 deg Eccentricity: 0.0014447 Arg of perigee: 128.3044 deg Mean anomaly: 231.9461 deg Mean motion: 14.63323318 rev/day Decay rate: 6.1e-07 rev/day^2 Epoch rev: 30563 Checksum: 311
Satellite: VO-52 Catalog number: 28650 Epoch time: 09168.58974510 Element set: 0251 Inclination: 097.7430 deg RA of node: 230.1584 deg Eccentricity: 0.0027864 Arg of perigee: 030.6884 deg Mean anomaly: 329.5960 deg Mean motion: 14.81592825 rev/day Decay rate: -1.27e-06 rev/day^2 Epoch rev: 22270 Checksum: 321
/EX SB KEPS @ AMSAT $ORB09169.D Orbital Elements 09169.MICROS
HR AMSAT ORBITAL ELEMENTS FOR THE MICROSATS FROM WA5QGD FORT WORTH,TX June 18, 2009 Send Subscribe/unsubscribe to KEPS at http://www.amsat.org/mailman/listinfo/keps BID: ORB09169.D TO ALL RADIO AMATEURS BT
Satellite: AO-16 Catalog number: 20439 Epoch time: 09168.90284975 Element set: 0630 Inclination: 098.2778 deg RA of node: 137.2716 deg Eccentricity: 0.0010872 Arg of perigee: 163.7834 deg Mean anomaly: 196.3702 deg Mean motion: 14.31826267 rev/day Decay rate: -1.0e-07 rev/day^2 Epoch rev: 01325 Checksum: 312
Satellite: LO-19 Catalog number: 20442 Epoch time: 09168.61036070 Element set: 0549 Inclination: 098.2409 deg RA of node: 144.2540 deg Eccentricity: 0.0012294 Arg of perigee: 161.6339 deg Mean anomaly: 198.5291 deg Mean motion: 14.32061355 rev/day Decay rate: -1.20e-06 rev/day^2 Epoch rev: 01337 Checksum: 279
Satellite: AO-27 Catalog number: 22825 Epoch time: 09168.91567913 Element set: 0270 Inclination: 098.4359 deg RA of node: 122.3159 deg Eccentricity: 0.0007469 Arg of perigee: 260.4711 deg Mean anomaly: 099.5640 deg Mean motion: 14.29267246 rev/day Decay rate: -5.7e-07 rev/day^2 Epoch rev: 82001 Checksum: 321
Satellite: IO-26 Catalog number: 22826 Epoch time: 09168.83575997 Element set: 0997 Inclination: 098.4300 deg RA of node: 122.9870 deg Eccentricity: 0.0007996 Arg of perigee: 258.3677 deg Mean anomaly: 101.6617 deg Mean motion: 14.29519670 rev/day Decay rate: 5.0e-08 rev/day^2 Epoch rev: 82010 Checksum: 346
Satellite: GO-32 Catalog number: 25397 Epoch time: 09168.70536541 Element set: 0920 Inclination: 098.3265 deg RA of node: 191.0183 deg Eccentricity: 0.0000399 Arg of perigee: 209.8811 deg Mean anomaly: 150.2332 deg Mean motion: 14.23159401 rev/day Decay rate: -1.44e-06 rev/day^2 Epoch rev: 56820 Checksum: 290
Satellite: NO-44 Catalog number: 26931 Epoch time: 09168.77413924 Element set: 0196 Inclination: 067.0528 deg RA of node: 062.8327 deg Eccentricity: 0.0005596 Arg of perigee: 272.0469 deg Mean anomaly: 087.9968 deg Mean motion: 14.29560040 rev/day Decay rate: 1.17e-06 rev/day^2 Epoch rev: 40266 Checksum: 332
Satellite: SO-50 Catalog number: 27607 Epoch time: 09168.59575225 Element set: 0912 Inclination: 064.5582 deg RA of node: 023.8492 deg Eccentricity: 0.0067242 Arg of perigee: 205.6162 deg Mean anomaly: 154.1628 deg Mean motion: 14.71441897 rev/day Decay rate: -2.5e-07 rev/day^2 Epoch rev: 34873 Checksum: 321
Satellite: CO-55 Catalog number: 27844 Epoch time: 09168.69648319 Element set: 0603 Inclination: 098.7119 deg RA of node: 177.8542 deg Eccentricity: 0.0010586 Arg of perigee: 137.1511 deg Mean anomaly: 223.0488 deg Mean motion: 14.20642459 rev/day Decay rate: 3.2e-07 rev/day^2 Epoch rev: 30933 Checksum: 320
Satellite: CO-57 Catalog number: 27848 Epoch time: 09168.53320528 Element set: 0550 Inclination: 098.7138 deg RA of node: 176.7543 deg Eccentricity: 0.0009955 Arg of perigee: 141.5102 deg Mean anomaly: 218.6789 deg Mean motion: 14.20444106 rev/day Decay rate: 3.0e-07 rev/day^2 Epoch rev: 30927 Checksum: 316
Satellite: AO-51 Catalog number: 28375 Epoch time: 09168.58966554 Element set: 0415 Inclination: 098.0515 deg RA of node: 178.1695 deg Eccentricity: 0.0084359 Arg of perigee: 123.2237 deg Mean anomaly: 237.7075 deg Mean motion: 14.40644956 rev/day Decay rate: 8.0e-08 rev/day^2 Epoch rev: 26101 Checksum: 331
Satellite: CO-56 Catalog number: 28941 Epoch time: 09168.91560107 Element set: 0174 Inclination: 098.1385 deg RA of node: 343.4811 deg Eccentricity: 0.0084411 Arg of perigee: 129.8711 deg Mean anomaly: 231.0021 deg Mean motion: 15.84780787 rev/day Decay rate: 6.8576e-04 rev/day^2 Epoch rev: 18736 Checksum: 334
Satellite: GENESAT1 Catalog number: 29655 Epoch time: 09167.48152799 Element set: 0742 Inclination: 040.0245 deg RA of node: 187.7385 deg Eccentricity: 0.0000455 Arg of perigee: 115.4921 deg Mean anomaly: 244.5941 deg Mean motion: 15.65608158 rev/day Decay rate: 7.861e-05 rev/day^2 Epoch rev: 14236 Checksum: 320
Satellite: CP3 Catalog number: 31129 Epoch time: 09169.34344490 Element set: 4 Inclination: 097.9879 deg RA of node: 222.3633 deg Eccentricity: 0.0101508 Arg of perigee: 282.0708 deg Mean anomaly: 076.9131 deg Mean motion: 14.52138917 rev/day Decay rate: 9.0e-07 rev/day^2 Epoch rev: 11505 Checksum: 290
Satellite: CO-65 Catalog number: 32785 Epoch time: 09168.39520636 Element set: 0399 Inclination: 097.9456 deg RA of node: 232.3606 deg Eccentricity: 0.0015798 Arg of perigee: 034.1005 deg Mean anomaly: 326.1228 deg Mean motion: 14.81490665 rev/day Decay rate: 3.5e-07 rev/day^2 Epoch rev: 06147 Checksum: 325
Satellite: KKS-1 Catalog number: 33493 Epoch time: 09169.38310467 Element set: 484 Inclination: 098.0574 deg RA of node: 281.5973 deg Eccentricity: 0.0018933 Arg of perigee: 236.3528 deg Mean anomaly: 123.5880 deg Mean motion: 14.80684685 rev/day Decay rate: 1.86e-06 rev/day^2 Epoch rev: 2164 Checksum: 332
Satellite: SOHLA-1 Catalog number: 33496 Epoch time: 09169.33998438 Element set: 445 Inclination: 098.0387 deg RA of node: 278.6297 deg Eccentricity: 0.0005383 Arg of perigee: 284.2608 deg Mean anomaly: 075.8019 deg Mean motion: 14.69436895 rev/day Decay rate: 1.0e-07 rev/day^2 Epoch rev: 2144 Checksum: 344
/EX SB KEPS @ AMSAT $ORB09169.W Orbital Elements 09169.WEATHER
HR AMSAT ORBITAL ELEMENTS FOR WEATHER SATELLITES FROM WA5QGD FORT WORTH,TX June 18, 2009 Send Subscribe/unsubscribe to KEPS at http://www.amsat.org/mailman/listinfo/keps BID: ORB09169.W TO ALL RADIO AMATEURS BT
Satellite: NOAA-10 Catalog number: 16969 Epoch time: 09168.64783734 Element set: 0652 Inclination: 098.6908 deg RA of node: 195.2930 deg Eccentricity: 0.0011958 Arg of perigee: 191.9899 deg Mean anomaly: 168.0988 deg Mean motion: 14.27388261 rev/day Decay rate: -6.9e-07 rev/day^2 Epoch rev: 18357 Checksum: 383
Satellite: NOAA-11 Catalog number: 19531 Epoch time: 09168.84382473 Element set: 0666 Inclination: 098.7848 deg RA of node: 258.7868 deg Eccentricity: 0.0012391 Arg of perigee: 105.9269 deg Mean anomaly: 254.3256 deg Mean motion: 14.14896982 rev/day Decay rate: -1.15e-06 rev/day^2 Epoch rev: 06961 Checksum: 357
Satellite: NOAA-12 Catalog number: 21263 Epoch time: 09168.94959527 Element set: 0171 Inclination: 098.7700 deg RA of node: 177.0097 deg Eccentricity: 0.0012898 Arg of perigee: 139.7470 deg Mean anomaly: 220.4667 deg Mean motion: 14.25582563 rev/day Decay rate: 1.0e-07 rev/day^2 Epoch rev: 94050 Checksum: 319
Satellite: MET-3/5 Catalog number: 21655 Epoch time: 09168.90894435 Element set: 0669 Inclination: 082.5523 deg RA of node: 205.9830 deg Eccentricity: 0.0013110 Arg of perigee: 174.0485 deg Mean anomaly: 186.0796 deg Mean motion: 13.17019411 rev/day Decay rate: 5.1e-07 rev/day^2 Epoch rev: 85772 Checksum: 312
Satellite: MET-2/21 Catalog number: 22782 Epoch time: 09168.90232003 Element set: 486 Inclination: 082.5472 deg RA of node: 181.4402 deg Eccentricity: 0.0022233 Arg of perigee: 349.0565 deg Mean anomaly: 011.0103 deg Mean motion: 13.83635670 rev/day Decay rate: 3.8e-07 rev/day^2 Epoch rev: 79770 Checksum: 279
Satellite: OKEAN-4 Catalog number: 23317 Epoch time: 09168.70704251 Element set: 937 Inclination: 082.5394 deg RA of node: 334.0006 deg Eccentricity: 0.0022607 Arg of perigee: 007.3533 deg Mean anomaly: 352.8000 deg Mean motion: 14.82703638 rev/day Decay rate: 2.34e-06 rev/day^2 Epoch rev: 79244 Checksum: 279
Satellite: NOAA-14 Catalog number: 23455 Epoch time: 09168.87841558 Element set: 0656 Inclination: 098.9087 deg RA of node: 246.5559 deg Eccentricity: 0.0009412 Arg of perigee: 183.6279 deg Mean anomaly: 176.4808 deg Mean motion: 14.13763244 rev/day Decay rate: -2.03e-06 rev/day^2 Epoch rev: 74602 Checksum: 344
Satellite: NOAA-15 Catalog number: 25338 Epoch time: 09168.89569545 Element set: 0968 Inclination: 098.5841 deg RA of node: 158.0863 deg Eccentricity: 0.0011585 Arg of perigee: 059.4543 deg Mean anomaly: 300.7749 deg Mean motion: 14.24766487 rev/day Decay rate: -5.0e-08 rev/day^2 Epoch rev: 57687 Checksum: 371
